User: anonymous   Login
Location: Deer Lake
(49.1830°N, 57.4330°W)
Time: 19:41:47
(UTC-03:-30)
Language:

Cosmos 1707 - Orbit

View from above orbital plane
View from above orbital plane
View from above satellite
View from above satellite

Ground track
Ground track

The orbit data is extracted from the following two-line orbital elements,

1 16326U 85113A   17324.40208381 +.00001419 +00000-0 +77386-4 0  9999
2 16326 082.5139 054.8761 0012124 118.9292 241.3156 15.13521650740698
Epoch (UTC): 20 November 2017 09:39:00
Eccentricity: 0.0012124
inclination: 82.5139°
perigee height: 517 km
apogee height: 534 km
right ascension of ascending node: 54.8761°
argument of perigee: 118.9292°
revolutions per day: 15.13521650
mean anomaly at epoch: 241.3156°
orbit number at epoch: 74069

The dashed part of the orbit path shows where the satellite is in the earth's shadow,  

DLR